Wind_Speed
45 46 47 48 50 51 51 51 51 52 53 52 53 53 54 55 55 55 55 54 54 53 53 53 52 52 53 53 52 52 52 52 51 49 49 49 49 48 48 48 48 49 50
45 46 47 48 49 50 51 51 52 53 53 53 54 54 54 55 55 56 55 55 55 54 53 53 53 53 53 52 53 53 52 52 52 51 50 50 50 50 50 50 49 50 51
45 45 46 47 48 49 50 51 52 53 53 53 54 54 54 55 55 55 55 55 55 54 53 52 51 52 52 52 52 52 52 52 52 53 51 50 51 51 51 51 50 51 51
47 46 46 47 48 50 50 51 52 53 53 53 53 53 53 53 53 54 54 54 53 53 52 51 51 51 52 51 51 50 50 51 52 52 52 51 51 51 51 50 50 50 50
48 47 47 47 48 49 50 51 52 53 53 52 51 50 51 52 52 52 52 52 51 52 52 51 51 51 51 50 50 50 50 51 51 51 51 51 51 51 49 49 49 49 49
48 48 48 49 49 49 50 50 50 51 52 52 51 50 50 50 50 50 52 52 51 51 50 49 49 50 50 49 49 49 49 51 50 50 50 50 49 49 49 49 49 49 50
47 48 48 49 50 50 49 49 48 49 51 52 51 50 49 49 49 48 49 50 50 49 48 48 49 49 49 49 50 50 50 50 50 51 51 50 49 49 50 50 50 50 49
46 48 49 49 50 49 48 47 47 48 49 50 50 49 48 47 47 47 47 48 49 48 47 47 48 48 49 49 50 49 49 49 49 50 50 49 49 50 49 49 49 49 49
45 46 47 48 47 47 47 47 47 47 47 48 48 47 47 46 46 46 46 48 48 48 47 47 47 47 47 48 48 48 47 48 48 48 48 48 48 48 48 48 47 48 48
43 44 45 45 43 43 44 45 46 46 45 45 46 46 46 46 45 46 46 46 46 46 47 47 46 45 46 47 47 46 45 45 45 46 47 48 47 46 46 46 46 48 48
41 42 42 42 42 41 41 42 42 42 43 43 44 43 44 44 44 44 44 45 45 45 45 45 45 45 45 45 45 44 44 45 45 46 45 45 46 46 46 47 47 48 48
40 40 41 41 40 40 40 40 40 40 41 41 42 43 42 42 43 42 43 44 44 44 43 43 43 43 43 43 43 43 43 44 44 44 44 44 44 45 45 46 46 46 46
39 38 38 39 40 39 38 38 38 38 38 39 39 40 40 40 41 42 42 43 43 43 42 40 41 41 41 41 41 42 42 41 41 42 43 43 43 43 43 43 44 44 44
36 36 36 36 37 38 37 37 36 36 37 38 38 39 39 39 39 40 40 41 41 41 41 40 39 40 40 40 41 41 41 40 41 41 42 42 42 42 42 43 43 42 42
34 33 33 34 34 34 35 35 34 35 36 36 37 38 38 38 39 39 39 38 38 39 38 38 39 39 38 39 40 41 41 42 42 41 41 41 41 41 40 40 40 39 40
33 33 32 32 33 33 33 33 33 34 35 35 36 37 38 38 38 38 38 38 38 37 37 37 37 38 38 39 39 39 40 41 41 41 41 40 40 40 39 39 39 39 39
32 32 31 31 30 31 32 32 32 33 34 34 35 36 37 37 37 36 36 37 36 36 36 35 35 35 36 36 37 37 38 39 39 39 39 39 39 39 39 38 38 38 38
30 31 31 31 30 30 31 31 32 31 32 33 33 34 35 35 36 36 36 35 36 35 35 35 34 34 34 35 35 36 36 36 36 37 37 37 38 38 38 37 37 37 37
30 31 31 30 30 30 30 31 31 30 30 31 32 32 33 33 34 34 34 33 33 33 33 33 33 33 33 33 34 34 34 34 34 35 35 36 36 36 36 36 36 35 35
29 30 30 29 29 29 29 30 30 30 30 31 30 30 30 30 31 31 31 31 30 30 30 31 31 32 32 32 32 33 33 33 33 33 34 34 34 34 35 35 35 35 35
29 28 29 28 28 29 29 29 29 29 29 28 28 28 28 28 28 28 29 29 28 28 29 29 30 30 31 31 31 31 31 32 32 32 32 33 34 34 34 34 34 34 34
27 27 27 27 28 28 27 27 27 27 27 27 26 26 26 26 26 26 26 27 27 27 27 27 27 28 29 29 30 30 30 29 29 29 30 31 31 32 32 33 34 34 34
26 26 26 26 26 26 26 25 25 25 25 25 25 25 24 24 24 24 25 26 26 25 25 25 25 25 26 26 27 27 27 26 26 26 27 28 28 29 30 31 32 32 32
25 25 25 24 24 24 24 23 23 23 23 23 23 23 23 23 23 23 23 24 25 25 24 24 23 23 23 23 24 25 25 25 25 25 26 27 27 27 29 29 29 29 29
24 24 23 23 22 21 21 22 22 22 22 22 22 22 22 22 22 22 22 22 23 24 23 23 22 22 22 22 22 23 22 22 23 23 24 24 25 26 27 27 27 26 26
22 22 22 22 21 20 20 20 20 20 21 21 21 21 21 21 21 21 21 22 22 22 22 21 21 21 21 20 20 20 21 21 22 22 23 24 25 25 25 24 24 24 24
Wind_Direction
262 261 260 259 259 257 255 255 255 255 255 256 257 258 258 258 258 259 260 261 262 263 263 263 263 264 264 266 267 268 269 270 272 272 273 274 275 276 277 279 280 281 282
264 263 261 261 260 258 257 256 256 255 256 257 257 258 259 259 260 260 261 262 262 263 263 263 264 264 265 266 267 268 268 269 270 271 272 273 274 276 277 278 280 281 282
264 263 263 262 260 260 260 260 258 256 256 257 258 259 260 261 261 261 261 261 261 262 263 264 264 265 266 266 267 267 267 268 269 271 272 272 274 275 277 278 279 281 282
264 263 263 263 262 262 262 262 260 258 257 258 260 260 260 261 261 261 261 261 262 262 263 263 263 264 265 265 266 266 267 268 269 271 271 272 273 275 276 278 279 280 281
264 263 263 263 263 263 263 262 261 260 259 259 260 260 260 261 261 262 262 261 262 262 262 262 262 263 264 265 265 266 267 267 269 271 272 272 272 273 276 278 279 280 280
266 265 264 264 264 265 263 262 261 260 259 259 260 261 261 261 261 262 262 261 262 263 262 262 262 262 263 264 265 265 266 268 270 271 272 272 272 274 277 278 279 279 280
267 266 265 265 265 265 264 262 262 260 259 260 260 261 261 260 260 261 261 261 261 262 262 262 262 262 263 263 264 264 265 267 269 270 270 272 273 274 276 277 279 280 282
269 267 266 266 265 265 265 262 261 261 260 259 259 260 260 259 260 260 261 260 260 262 262 263 263 264 263 264 264 264 265 266 268 269 270 272 274 275 276 278 279 281 283
271 269 267 267 266 265 264 263 262 262 261 260 258 258 259 259 259 260 261 260 260 262 262 262 263 264 264 263 264 264 265 267 268 269 270 272 273 275 276 278 280 281 284
272 271 268 267 266 264 264 262 262 262 262 261 260 259 258 259 260 261 262 262 262 262 262 263 263 263 262 262 264 265 266 266 267 269 271 272 273 275 277 279 281 282 284
272 271 269 267 265 265 266 265 263 263 262 261 261 261 261 260 260 262 264 264 264 263 262 262 261 261 261 261 262 264 266 267 268 270 271 272 273 276 277 278 280 283 285
273 272 270 268 267 266 266 266 264 263 263 262 262 262 262 261 260 262 264 264 264 264 263 262 261 261 261 261 263 264 266 268 270 270 272 273 275 277 278 280 282 284 286
274 272 269 267 266 265 265 265 264 263 263 262 262 262 262 262 262 263 263 263 263 263 262 262 263 263 263 263 264 264 265 267 270 272 273 275 278 279 281 282 284 286 286
275 272 269 268 265 263 263 263 264 263 263 263 262 261 262 262 262 263 263 261 262 262 261 262 263 264 263 263 263 263 265 268 271 274 276 277 280 281 282 283 285 287 286
275 273 270 267 265 264 263 263 264 264 264 264 264 263 264 264 264 263 263 261 262 263 263 262 262 263 263 262 262 264 267 269 272 275 276 278 279 280 281 284 286 286 286
274 273 271 269 266 265 264 264 264 266 266 266 266 266 265 265 265 264 263 262 262 263 263 263 263 262 262 263 265 267 269 270 272 274 276 277 279 280 282 285 286 286 286
275 273 273 270 267 267 265 264 266 267 266 266 266 267 267 266 265 263 263 263 263 263 262 262 263 263 264 266 267 268 270 271 273 274 276 277 280 282 283 285 286 286 286
276 274 273 271 270 269 268 267 268 267 266 267 267 268 268 266 265 264 263 263 262 260 260 261 262 263 264 266 267 267 270 272 273 274 276 278 280 282 284 285 286 285 286
276 275 273 272 272 271 269 269 269 268 267 266 267 268 267 266 265 263 262 261 260 259 259 260 261 264 265 267 268 269 270 272 274 276 277 279 280 282 283 285 286 286 285
276 275 273 272 272 271 270 269 268 268 268 266 264 265 264 265 265 262 260 258 258 259 260 261 262 265 266 267 270 271 270 272 275 277 278 279 280 282 284 285 286 286 287
274 273 272 273 272 271 270 269 268 267 266 265 264 263 262 263 264 263 260 258 259 260 262 263 264 265 266 268 270 271 271 273 275 276 278 279 281 282 284 285 287 287 288
275 274 273 273 273 272 271 269 268 267 265 265 266 264 264 263 263 262 260 260 260 261 262 262 264 266 267 268 271 272 272 273 274 276 279 281 282 284 285 286 288 287 288
276 276 275 274 274 272 271 269 268 267 265 265 264 264 264 263 261 260 260 260 259 259 261 262 265 267 268 269 270 272 273 274 275 277 280 283 286 287 287 288 289 288 289
276 276 276 275 273 272 271 269 267 266 265 264 263 262 262 262 260 260 261 261 259 258 260 264 266 268 268 269 270 272 273 274 276 278 281 285 287 288 289 290 290 290 290
276 275 275 274 272 271 271 270 267 265 264 264 262 261 260 259 260 260 261 262 262 260 261 263 265 267 268 269 271 272 273 274 276 278 282 286 288 291 292 291 291 291 291
275 275 275 273 271 270 270 269 267 265 264 262 261 260 259 259 259 259 260 262 263 263 262 263 264 265 267 268 271 272 273 275 277 279 283 288 291 293 294 294 294 293 293
Height
5616 5616 5616 5617 5618 5619 5620 5622 5624 5626 5628 5629 5631 5632 5634 5635 5636 5637 5638 5639 5640 5641 5642 5642 5643 5643 5642 5642 5642 5642 5641 5641 5641 5643 5641 5640 5638 5637 5635 5633 5632 5630 5627
5603 5603 5603 5604 5604 5606 5607 5608 5610 5611 5613 5615 5616 5617 5618 5620 5621 5622 5623 5624 5625 5626 5627 5627 5628 5628 5628 5628 5628 5628 5627 5627 5627 5628 5628 5627 5625 5624 5623 5621 5619 5617 5615
5590 5590 5590 5591 5591 5592 5593 5594 5595 5597 5598 5599 5600 5601 5603 5604 5605 5606 5607 5608 5609 5610 5611 5611 5612 5612 5613 5613 5613 5613 5613 5613 5613 5613 5614 5614 5612 5611 5609 5608 5606 5604 5601
5577 5577 5577 5577 5578 5579 5579 5580 5581 5582 5583 5584 5585 5586 5587 5588 5589 5590 5591 5592 5593 5594 5595 5596 5597 5598 5599 5599 5599 5599 5599 5599 5599 5599 5600 5600 5599 5597 5595 5594 5592 5590 5588
5563 5564 5564 5564 5564 5564 5564 5565 5566 5567 5568 5569 5570 5571 5572 5573 5574 5575 5576 5577 5577 5579 5580 5581 5582 5583 5583 5584 5585 5586 5585 5585 5586 5585 5586 5585 5585 5584 5583 5580 5578 5577 5575
5550 5549 5549 5550 5550 5550 5550 5550 5551 5552 5553 5554 5556 5557 5558 5559 5560 5561 5561 5562 5563 5564 5565 5566 5568 5569 5569 5570 5571 5571 5571 5572 5572 5572 5572 5571 5571 5570 5569 5567 5565 5563 5562
5536 5535 5535 5535 5535 5535 5535 5535 5536 5537 5538 5540 5541 5542 5544 5545 5546 5547 5547 5548 5549 5550 5551 5552 5553 5554 5555 5556 5557 5557 5557 5558 5558 5558 5558 5558 5557 5556 5555 5553 5551 5549 5548
5521 5521 5520 5520 5520 5520 5520 5521 5522 5523 5524 5526 5527 5528 5529 5531 5532 5533 5533 5534 5535 5537 5537 5538 5539 5540 5541 5542 5543 5543 5544 5545 5545 5544 5544 5544 5543 5542 5540 5539 5537 5535 5534
5508 5507 5506 5506 5506 5506 5507 5507 5508 5509 5510 5511 5513 5514 5516 5517 5518 5519 5520 5521 5522 5523 5524 5525 5525 5526 5528 5528 5529 5530 5532 5533 5532 5531 5531 5530 5529 5528 5527 5525 5523 5521 5520
5495 5494 5493 5493 5493 5493 5494 5494 5495 5496 5497 5498 5499 5501 5503 5504 5505 5506 5507 5508 5509 5511 5511 5512 5513 5513 5514 5515 5516 5518 5519 5519 5519 5518 5518 5517 5516 5515 5513 5512 5510 5508 5506
5483 5482 5481 5481 5481 5481 5482 5482 5482 5483 5485 5486 5487 5489 5490 5491 5492 5493 5494 5495 5496 5497 5498 5499 5500 5500 5501 5502 5503 5505 5506 5506 5506 5505 5505 5504 5503 5502 5500 5498 5496 5494 5492
5471 5470 5470 5470 5469 5470 5470 5470 5471 5471 5473 5474 5475 5476 5477 5478 5480 5481 5482 5482 5483 5484 5485 5486 5487 5488 5489 5490 5491 5492 5493 5493 5493 5492 5492 5491 5490 5489 5487 5485 5483 5480 5478
5459 5459 5459 5459 5459 5459 5459 5459 5460 5461 5461 5462 5463 5465 5466 5467 5468 5469 5469 5470 5471 5472 5473 5474 5475 5476 5477 5478 5480 5481 5481 5481 5481 5481 5480 5479 5478 5476 5474 5472 5469 5467 5464
5448 5448 5448 5448 5448 5448 5448 5449 5449 5450 5451 5451 5452 5454 5455 5456 5456 5457 5457 5458 5459 5460 5461 5462 5463 5464 5466 5467 5468 5469 5469 5470 5470 5469 5468 5467 5466 5464 5462 5460 5457 5454 5452
5438 5438 5437 5437 5437 5437 5438 5438 5439 5440 5440 5441 5441 5442 5443 5444 5445 5445 5446 5447 5448 5448 5449 5450 5452 5454 5455 5456 5457 5458 5458 5458 5458 5458 5456 5455 5454 5452 5450 5448 5446 5443 5440
5428 5428 5428 5427 5427 5427 5428 5428 5428 5429 5430 5430 5430 5431 5431 5432 5433 5434 5434 5435 5436 5437 5438 5440 5441 5443 5444 5446 5446 5446 5446 5447 5446 5446 5445 5444 5443 5441 5439 5437 5434 5432 5430
5419 5418 5418 5418 5417 5417 5418 5418 5419 5419 5419 5419 5420 5420 5420 5421 5422 5422 5423 5424 5426 5427 5428 5429 5431 5432 5434 5435 5435 5435 5435 5435 5435 5434 5434 5433 5432 5430 5428 5426 5423 5421 5418
5409 5409 5408 5408 5408 5408 5408 5408 5409 5409 5409 5409 5410 5410 5410 5410 5411 5412 5413 5414 5415 5416 5417 5419 5421 5422 5423 5424 5424 5424 5425 5424 5424 5423 5422 5421 5420 5419 5417 5414 5412 5410 5408
5400 5400 5399 5399 5399 5398 5399 5399 5399 5399 5399 5400 5400 5400 5400 5400 5400 5401 5402 5404 5405 5406 5407 5409 5410 5412 5413 5413 5414 5414 5414 5414 5413 5413 5412 5410 5409 5407 5406 5404 5402 5400 5397
5391 5390 5390 5390 5389 5389 5389 5389 5389 5389 5390 5390 5390 5390 5390 5390 5391 5392 5393 5394 5395 5397 5398 5399 5401 5402 5402 5403 5403 5403 5403 5403 5403 5402 5401 5400 5398 5397 5395 5393 5391 5389 5387
5382 5382 5381 5381 5381 5380 5380 5380 5380 5380 5380 5381 5381 5381 5381 5382 5382 5383 5384 5385 5386 5388 5389 5390 5391 5392 5392 5393 5393 5393 5393 5393 5392 5392 5391 5389 5388 5386 5384 5383 5381 5378 5376
5374 5373 5373 5372 5372 5371 5371 5371 5371 5371 5371 5372 5372 5372 5373 5373 5374 5375 5376 5377 5378 5379 5380 5381 5382 5382 5383 5384 5384 5384 5384 5383 5383 5382 5381 5379 5378 5376 5374 5372 5370 5368 5366
5365 5365 5364 5364 5363 5363 5362 5362 5362 5363 5363 5364 5364 5364 5365 5365 5366 5367 5368 5369 5370 5371 5372 5372 5373 5374 5374 5374 5375 5375 5375 5374 5374 5373 5372 5370 5369 5367 5365 5363 5360 5358 5355
5357 5357 5356 5356 5355 5355 5355 5354 5355 5355 5355 5356 5356 5357 5357 5358 5359 5360 5361 5361 5362 5363 5364 5365 5365 5366 5366 5366 5366 5366 5366 5366 5365 5365 5364 5362 5360 5358 5356 5354 5351 5349 5346
5349 5349 5348 5348 5347 5347 5347 5347 5347 5348 5348 5348 5349 5349 5350 5351 5352 5353 5353 5354 5355 5356 5357 5357 5358 5358 5358 5358 5358 5358 5358 5358 5358 5357 5356 5354 5352 5350 5348 5345 5343 5340 5338
5341 5341 5340 5340 5340 5340 5340 5340 5340 5340 5341 5341 5342 5342 5343 5344 5345 5346 5347 5347 5348 5349 5349 5350 5350 5351 5351 5351 5351 5351 5351 5351 5350 5349 5348 5347 5345 5343 5340 5338 5335 5332 5330